User: anonymous   Login
Location: ???????
(54.9996°N, 37.9529°E)
Time: 03:48:43
(UTC+00:00)
Language:

Cosmos 1536 - Orbit

View from above orbital plane
View from above orbital plane
View from above satellite
View from above satellite

Ground track
Ground track

The orbit data is extracted from the following two-line orbital elements,

1 14699U 84013A   24174.60188403  .00004485  00000-0  25289-3 0  9993
2 14699  82.5500   3.9819 0016903 303.2098  56.7511 15.12828869177757
Epoch (UTC): 22 June 2024 14:26:42
Eccentricity: 0.0016903
inclination: 82.5500°
perigee height: 516 km
apogee height: 539 km
right ascension of ascending node: 3.9819°
argument of perigee: 303.2098°
revolutions per day: 15.12828869
mean anomaly at epoch: 56.7511°
orbit number at epoch: 17775

The dashed part of the orbit path shows where the satellite is in the earth's shadow,  

DLR